Simultaneous Nadir Overpasses (SNOs) Predictions

Prediction of SNOs between GOES-17 and METOP-C Satellite Orbit:

Table of predicted SNOs for the next 14.0 days since TLE Epoch: 11/11/2023
Index Date Time (GOES-17) GOES-17 Lat,Lon METOP-C Lat,Lon Distance(km) Time Diff (sec)
1 11/11/2023 16:32:59 0.01,-104.68 0.36,-106.17 170.81 80
2 11/12/2023 16:15:00 0.01,-104.68 -0.75,-101.18 398.21 80
3 11/14/2023 04:34:01 -0.00,-104.66 -0.28,-105.78 127.85 80
4 11/15/2023 04:10:43 -0.00,-104.66 0.85,-100.79 440.55 80
5 11/16/2023 16:29:36 -0.01,-104.67 0.17,-105.35 78.62 80
6 11/17/2023 16:11:38 -0.01,-104.66 -0.95,-100.36 489.95 80
7 11/19/2023 04:30:39 0.01,-104.64 -0.04,-104.96 36.09 80
8 11/21/2023 16:28:53 -0.01,-104.65 -0.01,-104.53 13.50 80
9 11/24/2023 04:24:35 0.01,-104.64 0.12,-104.13 57.28 80
